Find Starlink 32504

NORAD ID: 62024 Int'l Des: 2024-213 Owner: SPXS Country: US Constellation: starlink operational
LEOCIRCULAR

Current View

Loading 3D Globe...

About Starlink 32504

Starlink 32504 (NORAD 62024) is a starlink constellation satellite (v2 mini) launched Nov 18, 2024 by SPXS of US. It operates in LEO, CIRCULAR orbit with a mass of 730.00 kg.

Upcoming Passes

Passes for default location (London). Set your location on the main map for personalized predictions.

Altitude History

Loading altitude history...

Two-Line Element Set

1 62024U 24213S 26235.10725247 .00028493 00000-0 85123-3 0 9990
2 62024 53.1591 114.4602 0001035 102.1249 257.9870 15.34399627 98640
Epoch: Aug 23, 2026 • Age: 29 hours

Current Status

Altitude 476.9 km
Apogee / Perigee N/A
Velocity 7.63 km/s
Sub-Earth Point -41.37°S, 25.42°W
Launch Date Nov 18, 2024
Age 1.7 years
Type internet

Technical Details

Classification Payload
Mass 730.00 kg
Dry Mass 700.00 kg
Total Mass 730.00 kg
Length 0.30 m
Diameter 4.10 m
Span 29.00 m
Shape Box + pan
Manufacturer SPXS
Bus Type Starlink V2M
Phase Status In Orbit
Owner/State SPXS/US

Most Searched